Lid_Strength_Index
1 -0 -2 -1 -1 -2 -2 -2 -2 -2 -2 -2 -2 -2 -2 -2 -2 -2 -2 -2 -2 -2 -2 -2 -2 -2 -2 -2 -2 -2 -2 -2 -2 -2 -2 -2 -2 -2 -2 -2 -2 -1 -2
-0 -1 -1 -2 -2 -1 -2 -2 -2 -2 -2 -2 -2 -2 -2 -2 -2 -2 -2 -2 -2 -2 -2 -2 -2 -2 -2 -2 -2 -2 -2 -2 -2 -2 -2 -2 -2 -2 -2 -2 -2 -1 -2
-0 -1 -1 -1 -2 -2 -2 -2 -2 -2 -2 -2 -2 -2 -2 -2 -2 -2 -2 -2 -1 -1 -2 -2 -2 -2 -2 -2 -2 -2 -2 -2 -2 -2 -2 -0 -1 -2 -2 -2 -3 -2 -2
-0 -1 -1 -1 -1 -2 -2 -2 -2 -2 -2 -2 -2 -2 -2 -2 -2 -2 -2 -2 -2 -1 -2 -2 -2 -2 -2 -2 -2 -2 -2 -2 -2 -2 0 -0 -1 -2 -2 -2 -2 -2 -2
-0 -1 -1 -1 -2 -2 -2 -2 -2 -2 -2 -2 -2 -2 -2 -2 -2 -2 -2 -2 -2 -2 -2 -2 -2 -2 -2 -2 -2 -2 -2 -2 -2 -1 -0 0 -1 -2 -2 -2 -2 -2 -2
-0 -0 -1 -1 -1 -2 -2 -2 -2 -2 -2 -2 -2 -2 -2 -2 -2 -2 -2 -2 -2 -2 -2 -2 -2 -2 -2 -2 -2 -2 -2 -2 -1 0 0 -1 -1 -2 -3 -2 -2 -2 -2
0 -0 -1 -1 -1 -2 -2 -2 -2 -2 -2 -2 -2 -2 -2 -2 -2 -2 -2 -2 -2 -2 -2 -2 -2 -2 -2 -2 -2 -2 -1 -1 0 1 1 -0 -1 -2 -3 -2 -2 -2 -2
0 -0 -1 0 -0 -1 -1 -2 -2 -2 -2 -2 -2 -2 -2 -2 -2 -2 -2 -2 -2 -2 -2 -2 -2 -2 -2 -2 -2 -1 -1 -0 1 1 1 0 -2 -2 -3 -3 -2 -2 -2
-0 -0 -0 -0 0 1 -0 -1 -1 -2 -2 -2 -2 -2 -2 -2 -2 -2 -2 -2 -2 -2 -2 -2 -2 -2 -2 -2 -2 -2 -2 -1 1 0 -0 -1 -2 -2 -3 -2 -2 -2 -1
0 -0 -0 -0 -0 -0 -0 1 0 -1 -2 -2 -2 -1 -1 -1 -2 -2 -2 -2 -2 -2 -2 -2 -2 -2 -2 -2 -2 -1 -0 -0 1 -0 -1 -1 -2 -2 -2 -1 -1 -1 -1
1 0 -0 -0 -0 -0 -0 1 1 0 -1 -1 -1 -0 1 0 -0 1 -1 -2 -2 -2 -2 -2 -2 -2 -1 -1 -0 1 2 3 1 -1 -1 -2 -2 -2 -1 -1 -0 -0 -0
2 1 0 -0 0 0 -1 0 -0 -0 -0 1 1 2 2 2 1 1 1 -1 -2 -2 -2 -2 -1 0 2 3 3 2 4 3 2 -0 -1 -2 -2 -1 -1 -0 -0 0 0
2 1 1 0 -0 0 0 0 0 -0 1 2 3 3 3 3 3 3 2 1 1 1 1 2 3 3 4 4 4 4 4 4 3 2 -1 -2 -1 -0 -1 0 0 0 1
3 2 1 0 0 0 -0 0 -0 -0 1 2 3 3 3 4 4 4 3 3 3 3 3 4 4 5 5 5 5 5 5 6 5 5 2 -0 -1 -1 -0 0 1 1 1
3 2 1 0 0 -0 -0 -0 -0 -0 1 2 3 2 3 4 5 5 5 4 4 4 4 5 5 5 6 6 6 6 6 7 6 6 4 1 -0 -0 -0 1 1 1 1
3 2 1 1 1 0 -0 -0 -0 -0 -0 1 2 2 3 4 4 5 5 5 6 5 5 5 6 7 7 7 7 7 7 8 8 8 7 5 1 0 1 1 1 2 2
3 2 2 1 1 0 0 -0 -0 -0 -0 1 2 2 2 3 5 5 5 6 6 6 6 6 7 8 9 8 8 8 9 9 9 10 9 8 7 4 2 2 2 2 2
4 3 2 1 1 1 0 -0 -0 -0 -0 0 1 2 2 2 4 4 5 5 5 5 6 7 8 8 9 9 10 10 10 11 11 10 10 10 10 9 6 3 3 3 3
3 3 2 1 1 1 1 0 0 -0 -0 0 0 1 1 2 3 4 5 5 5 6 6 7 9 9 10 12 11 12 13 12 12 11 11 10 10 11 11 7 6 4 4
3 3 2 1 1 1 1 1 1 0 0 0 1 0 1 2 2 3 4 4 5 6 7 8 9 10 11 12 12 13 13 13 14 13 13 12 12 12 12 12 11 9 4
4 4 2 1 1 2 2 2 2 2 1 2 1 1 1 1 2 3 4 4 5 7 7 8 10 12 12 12 13 14 15 15 15 15 14 14 13 14 13 13 12 12 10
6 3 2 2 1 2 1 2 2 1 2 1 2 2 1 1 2 2 3 4 5 6 8 9 10 12 12 12 15 15 16 15 16 15 15 16 16 16 15 14 14 13 13
8 5 2 2 1 1 1 2 6 6 7 6 5 3 2 1 1 2 2 3 5 5 8 9 10 11 12 13 13 13 16 16 17 17 16 16 17 18 17 16 16 14 14
9 7 4 2 2 1 2 3 3 3 3 3 3 4 4 3 1 2 2 4 4 5 7 9 9 10 10 13 13 12 12 14 16 19 16 16 17 17 18 17 17 16 16
9 9 6 3 3 2 2 3 3 3 3 6 7 6 7 6 5 2 2 3 4 5 6 7 9 9 10 11 11 11 12 14 15 16 18 18 18 17 17 16 17 16 15
9 9 7 4 4 4 3 4 4 4 6 8 9 8 7 7 5 5 4 3 4 4 5 7 8 8 9 9 10 9 11 11 14 16 18 17 17 17 16 16 17 16 16